| time (UTC) | temp C | wind direction | speed KPH | gust KPH | rain 1hr cm | rain 24hr cm | rain mn cm | humidity % | barometer mb |
| 20260504110224 | 8 | 113 | 11.3 | 12.9 | 0.00 | 0.00 | 0.00 | 63 | 1018.8 |
| 20260504100142 | 7 | 124 | 8.0 | 8.0 | 0.00 | 0.00 | 0.00 | 66 | 1018.6 |
| 20260504090105 | 7 | 122 | 8.0 | 9.7 | 0.00 | 0.00 | 0.00 | 64 | 1018.7 |
| 20260504081535 | 7 | 120 | 4.8 | 4.8 | 0.00 | 0.00 | 0.00 | 64 | 1018.7 |
| 20260504081031 | 7 | 119 | 4.8 | 8.0 | 0.00 | 0.00 | 0.00 | 64 | 1018.7 |
| 20260504080528 | 7 | 118 | 4.8 | 4.8 | 0.00 | 0.00 | 0.00 | 64 | 1018.8 |
| 20260504050340 | 7 | 119 | 1.6 | 3.2 | 0.00 | 0.00 | 0.00 | 63 | 1019.4 |
| 20260504045837 | 7 | 129 | 1.6 | 1.6 | 0.00 | 0.00 | 0.00 | 64 | 1019.3 |
| 20260504045332 | 7 | 117 | 1.6 | 3.2 | 0.00 | 0.00 | 0.00 | 63 | 1019.5 |
| 20260504044829 | 7 | 98 | 1.6 | 1.6 | 0.00 | 0.00 | 0.00 | 63 | 1019.7 |
| 20260504044327 | 7 | 122 | 3.2 | 3.2 | 0.00 | 0.00 | 0.00 | 66 | 1019.6 |
| 20260504043824 | 7 | 123 | 1.6 | 1.6 | 0.00 | 0.00 | 0.00 | 63 | 1019.9 |
| 20260504043321 | 7 | 134 | 1.6 | 3.2 | 0.00 | 0.00 | 0.00 | 59 | 1019.7 |
| 20260504042818 | 7 | 71 | 0.0 | 1.6 | 0.00 | 0.00 | 0.00 | 60 | 1020.1 |
| 20260504042314 | 7 | 132 | 0.0 | 1.6 | 0.00 | 0.00 | 0.00 | 60 | 1019.9 |
| 20260504041811 | 7 | 105 | 0.0 | 1.6 | 0.00 | 0.00 | 0.00 | 62 | 1019.7 |
| 20260504041307 | 7 | 109 | 1.6 | 1.6 | 0.00 | 0.00 | 0.00 | 62 | 1019.9 |
| 20260504040803 | 7 | 133 | 3.2 | 3.2 | 0.00 | 0.00 | 0.00 | 63 | 1019.7 |
| 20260504040301 | 7 | 113 | 3.2 | 3.2 | 0.00 | 0.00 | 0.00 | 59 | 1019.6 |
| 20260504035756 | 7 | 106 | 1.6 | 1.6 | 0.00 | 0.00 | 0.00 | 61 | 1019.6 |
| 20260504035254 | 7 | 114 | 3.2 | 3.2 | 0.00 | 0.00 | 0.00 | 62 | 1019.5 |
| 20260504034751 | 6 | 105 | 1.6 | 1.6 | 0.00 | 0.00 | 0.00 | 62 | 1019.6 |
| 20260504034249 | 6 | 115 | 3.2 | 3.2 | 0.00 | 0.00 | 0.00 | 63 | 1019.3 |
| 20260504033746 | 6 | 137 | 3.2 | 3.2 | 0.00 | 0.00 | 0.00 | 66 | 1019.5 |
| 20260504033244 | 6 | 122 | 3.2 | 3.2 | 0.00 | 0.00 | 0.00 | 66 | 1019.4 |
| 20260504032740 | 6 | 129 | 3.2 | 3.2 | 0.00 | 0.00 | 0.00 | 65 | 1019.2 |
| 20260504032237 | 6 | 119 | 3.2 | 3.2 | 0.00 | 0.00 | 0.00 | 63 | 1019.2 |
| 20260504031734 | 6 | 119 | 1.6 | 3.2 | 0.00 | 0.00 | 0.00 | 64 | 1019.1 |
| 20260504031232 | 6 | 119 | 3.2 | 3.2 | 0.00 | 0.00 | 0.00 | 64 | 1019.2 |
| 20260504030727 | 6 | 114 | 1.6 | 3.2 | 0.00 | 0.00 | 0.00 | 65 | 1019.3 |
| 20260504030225 | 5 | 109 | 1.6 | 1.6 | 0.00 | 0.00 | 0.00 | 66 | 1019.1 |
| 20260504025721 | 5 | 125 | 3.2 | 3.2 | 0.00 | 0.00 | 0.00 | 68 | 1019.1 |
| 20260504025218 | 5 | 138 | 3.2 | 3.2 | 0.00 | 0.00 | 0.00 | 68 | 1019.2 |
| 20260504024715 | 6 | 123 | 1.6 | 3.2 | 0.00 | 0.00 | 0.00 | 65 | 1019.1 |
| 20260504024211 | 6 | 117 | 1.6 | 1.6 | 0.00 | 0.00 | 0.00 | 64 | 1018.9 |
| 20260504023708 | 6 | 110 | 1.6 | 1.6 | 0.00 | 0.00 | 0.00 | 62 | 1018.9 |
| 20260504023204 | 6 | 113 | 1.6 | 3.2 | 0.00 | 0.00 | 0.00 | 63 | 1019.1 |
| 20260504022700 | 6 | 115 | 1.6 | 1.6 | 0.00 | 0.00 | 0.00 | 62 | 1019.0 |
| 20260504022156 | 6 | 112 | 1.6 | 3.2 | 0.00 | 0.00 | 0.00 | 61 | 1019.1 |
| 20260504021655 | 6 | 125 | 1.6 | 3.2 | 0.00 | 0.00 | 0.00 | 61 | 1019.3 |
| 20260504021151 | 6 | 115 | 1.6 | 1.6 | 0.00 | 0.00 | 0.00 | 61 | 1019.2 |
| 20260504020648 | 6 | 113 | 1.6 | 1.6 | 0.00 | 0.00 | 0.00 | 60 | 1019.0 |
| 20260504020144 | 6 | 107 | 3.2 | 3.2 | 0.00 | 0.00 | 0.00 | 59 | 1018.9 |
| 20260504015641 | 6 | 113 | 1.6 | 1.6 | 0.00 | 0.00 | 0.00 | 60 | 1019.2 |
| 20260504015137 | 7 | 126 | 1.6 | 1.6 | 0.00 | 0.00 | 0.00 | 57 | 1019.2 |
| 20260504014633 | 7 | 127 | 3.2 | 3.2 | 0.00 | 0.00 | 0.00 | 56 | 1019.3 |
| 20260504014130 | 7 | 124 | 1.6 | 1.6 | 0.00 | 0.00 | 0.00 | 55 | 1019.3 |
| 20260504013628 | 8 | 108 | 0.0 | 0.0 | 0.00 | 0.00 | 0.00 | 52 | 1019.1 |
| 20260504013124 | 8 | 100 | 0.0 | 1.6 | 0.00 | 0.00 | 0.00 | 50 | 1019.1 |
| 20260504012622 | 8 | 88 | 0.0 | 0.0 | 0.00 | 0.00 | 0.00 | 48 | 1018.9 |
| 20260504012120 | 8 | 91 | 1.6 | 1.6 | 0.00 | 0.00 | 0.00 | 47 | 1019.1 |
| 20260504011616 | 8 | 350 | 4.8 | 4.8 | 0.00 | 0.00 | 0.00 | 47 | 1018.8 |
| 20260504011113 | 9 | 343 | 1.6 | 3.2 | 0.00 | 0.00 | 0.00 | 47 | 1018.9 |
| 20260504010608 | 9 | 311 | 1.6 | 3.2 | 0.00 | 0.00 | 0.00 | 46 | 1018.7 |
| 20260504010105 | 9 | 355 | 4.8 | 4.8 | 0.00 | 0.00 | 0.00 | 45 | 1018.6 |
| 20260504005601 | 10 | 89 | 0.0 | 1.6 | 0.00 | 0.00 | 0.00 | 45 | 1018.6 |
| 20260504005059 | 10 | 157 | 3.2 | 3.2 | 0.00 | 0.00 | 0.00 | 44 | 1018.7 |
| 20260504004556 | 10 | 70 | 4.8 | 8.0 | 0.00 | 0.00 | 0.00 | 43 | 1018.8 |
| 20260504004053 | 10 | 335 | 6.4 | 8.0 | 0.00 | 0.00 | 0.00 | 43 | 1018.7 |
| 20260504003549 | 10 | 62 | 4.8 | 4.8 | 0.00 | 0.00 | 0.00 | 43 | 1018.5 |
| 20260504003046 | 10 | 338 | 3.2 | 4.8 | 0.00 | 0.00 | 0.00 | 42 | 1018.5 |
| 20260504002543 | 10 | 43 | 3.2 | 3.2 | 0.00 | 0.00 | 0.00 | 42 | 1018.4 |
| 20260504002041 | 10 | 338 | 4.8 | 8.0 | 0.00 | 0.00 | 0.00 | 41 | 1018.4 |
| 20260504001538 | 10 | 281 | 4.8 | 4.8 | 0.00 | 0.00 | 0.00 | 40 | 1018.1 |
| 20260504001034 | 10 | 352 | 11.3 | 16.1 | 0.00 | 0.00 | 0.00 | 40 | 1018.1 |
| 20260504000532 | 10 | 333 | 8.0 | 11.3 | 0.00 | 0.00 | 0.00 | 39 | 1018.2 |
| 20260504000029 | 10 | 70 | 8.0 | 9.7 | 0.00 | 0.00 | 0.00 | 38 | 1018.0 |
| 20260503235527 | 11 | 128 | 8.0 | 9.7 | 0.00 | 0.00 | 0.00 | 39 | 1018.1 |
| 20260503235023 | 11 | 296 | 8.0 | 11.3 | 0.00 | 0.00 | 0.00 | 38 | 1018.0 |
| 20260503234521 | 11 | 294 | 4.8 | 8.0 | 0.00 | 0.00 | 0.00 | 38 | 1017.9 |
| 20260503234020 | 11 | 288 | 9.7 | 11.3 | 0.00 | 0.00 | 0.00 | 37 | 1017.8 |
| 20260503233515 | 11 | 340 | 8.0 | 9.7 | 0.00 | 0.00 | 0.00 | 36 | 1017.8 |
| 20260503233011 | 11 | 281 | 14.5 | 20.9 | 0.00 | 0.00 | 0.00 | 36 | 1017.5 |
| 20260503232509 | 11 | 160 | 8.0 | 11.3 | 0.00 | 0.00 | 0.00 | 35 | 1017.4 |
| 20260503232006 | 12 | 292 | 4.8 | 4.8 | 0.00 | 0.00 | 0.00 | 34 | 1017.5 |
| 20260503231504 | 12 | 328 | 9.7 | 12.9 | 0.00 | 0.00 | 0.00 | 33 | 1017.5 |
| 20260503231000 | 12 | 114 | 8.0 | 11.3 | 0.00 | 0.00 | 0.00 | 33 | 1017.3 |
| 20260503230457 | 12 | 287 | 9.7 | 12.9 | 0.00 | 0.00 | 0.00 | 33 | 1017.3 |
| 20260503225954 | 12 | 326 | 8.0 | 8.0 | 0.00 | 0.00 | 0.00 | 33 | 1017.3 |
| 20260503225451 | 12 | 315 | 17.7 | 22.5 | 0.00 | 0.00 | 0.00 | 32 | 1017.2 |
| 20260503224946 | 12 | 317 | 8.0 | 9.7 | 0.00 | 0.00 | 0.00 | 31 | 1017.2 |
| 20260503224443 | 12 | 318 | 11.3 | 14.5 | 0.00 | 0.00 | 0.00 | 31 | 1017.1 |
| 20260503223941 | 12 | 345 | 8.0 | 11.3 | 0.00 | 0.00 | 0.00 | 32 | 1017.3 |
| 20260503223439 | 12 | 135 | 6.4 | 11.3 | 0.00 | 0.00 | 0.00 | 33 | 1017.3 |
| 20260503222934 | 12 | 238 | 8.0 | 11.3 | 0.00 | 0.00 | 0.00 | 31 | 1017.1 |
| 20260503222433 | 12 | 299 | 6.4 | 8.0 | 0.00 | 0.00 | 0.00 | 31 | 1017.2 |
| 20260503221931 | 12 | 312 | 8.0 | 11.3 | 0.00 | 0.00 | 0.00 | 30 | 1017.3 |
| 20260503221429 | 12 | 268 | 6.4 | 11.3 | 0.00 | 0.00 | 0.00 | 31 | 1017.1 |
| 20260503220925 | 12 | 343 | 19.3 | 20.9 | 0.00 | 0.00 | 0.00 | 30 | 1017.3 |
| 20260503220422 | 12 | 26 | 8.0 | 12.9 | 0.00 | 0.00 | 0.00 | 31 | 1017.3 |
| 20260503215919 | 12 | 273 | 8.0 | 9.7 | 0.00 | 0.00 | 0.00 | 32 | 1017.1 |
| 20260503215416 | 12 | 302 | 16.1 | 20.9 | 0.00 | 0.00 | 0.00 | 30 | 1017.2 |
| 20260503214914 | 12 | 312 | 9.7 | 11.3 | 0.00 | 0.00 | 0.00 | 32 | 1017.2 |
| 20260503214411 | 12 | 28 | 11.3 | 14.5 | 0.00 | 0.00 | 0.00 | 32 | 1017.2 |
| 20260503213908 | 12 | 319 | 12.9 | 16.1 | 0.00 | 0.00 | 0.00 | 31 | 1017.3 |
| 20260503213406 | 12 | 308 | 14.5 | 16.1 | 0.00 | 0.00 | 0.00 | 31 | 1017.3 |
| 20260503212902 | 12 | 284 | 8.0 | 9.7 | 0.00 | 0.00 | 0.00 | 33 | 1017.1 |
| 20260503212400 | 12 | 321 | 14.5 | 16.1 | 0.00 | 0.00 | 0.00 | 32 | 1017.2 |
| 20260503211857 | 12 | 289 | 12.9 | 14.5 | 0.00 | 0.00 | 0.00 | 32 | 1017.2 |
| 20260503211354 | 12 | 288 | 4.8 | 8.0 | 0.00 | 0.00 | 0.00 | 36 | 1017.2 |
| 20260503210848 | 11 | 274 | 6.4 | 9.7 | 0.00 | 0.00 | 0.00 | 37 | 1017.2 |
| 20260503210347 | 12 | 317 | 17.7 | 22.5 | 0.00 | 0.00 | 0.00 | 33 | 1017.3 |
| 20260503205841 | 11 | 340 | 8.0 | 11.3 | 0.00 | 0.00 | 0.00 | 36 | 1017.2 |
| 20260503205338 | 12 | 328 | 9.7 | 12.9 | 0.00 | 0.00 | 0.00 | 36 | 1017.2 |
| 20260503204834 | 11 | 337 | 14.5 | 17.7 | 0.00 | 0.00 | 0.00 | 36 | 1017.2 |
| 20260503204332 | 11 | 311 | 12.9 | 17.7 | 0.00 | 0.00 | 0.00 | 36 | 1017.5 |
| 20260503203829 | 11 | 283 | 11.3 | 12.9 | 0.00 | 0.00 | 0.00 | 36 | 1017.5 |
| 20260503203327 | 11 | 1 | 11.3 | 12.9 | 0.00 | 0.00 | 0.00 | 35 | 1017.5 |
| 20260503202823 | 11 | 330 | 11.3 | 16.1 | 0.00 | 0.00 | 0.00 | 35 | 1017.6 |
| 20260503202321 | 12 | 346 | 17.7 | 20.9 | 0.00 | 0.00 | 0.00 | 37 | 1017.4 |
| 20260503201820 | 11 | 334 | 6.4 | 8.0 | 0.00 | 0.00 | 0.00 | 39 | 1017.7 |
| 20260503201316 | 10 | 354 | 3.2 | 3.2 | 0.00 | 0.00 | 0.00 | 38 | 1017.7 |
| 20260503200814 | 10 | 256 | 6.4 | 9.7 | 0.00 | 0.00 | 0.00 | 40 | 1017.7 |
| 20260503200309 | 10 | 316 | 4.8 | 4.8 | 0.00 | 0.00 | 0.00 | 40 | 1017.6 |
| 20260503195807 | 10 | 301 | 6.4 | 11.3 | 0.00 | 0.00 | 0.00 | 40 | 1017.9 |
| 20260503195304 | 10 | 351 | 14.5 | 16.1 | 0.00 | 0.00 | 0.00 | 38 | 1017.8 |
| 20260503194801 | 10 | 142 | 4.8 | 4.8 | 0.00 | 0.00 | 0.00 | 41 | 1018.0 |
| 20260503194256 | 10 | 358 | 8.0 | 11.3 | 0.00 | 0.00 | 0.00 | 38 | 1018.0 |
| 20260503193753 | 10 | 291 | 6.4 | 8.0 | 0.00 | 0.00 | 0.00 | 40 | 1018.0 |
| 20260503193249 | 10 | 279 | 8.0 | 12.9 | 0.00 | 0.00 | 0.00 | 41 | 1017.9 |
| 20260503192745 | 10 | 6 | 14.5 | 17.7 | 0.00 | 0.00 | 0.00 | 41 | 1018.0 |
| 20260503192240 | 10 | 17 | 12.9 | 20.9 | 0.00 | 0.00 | 0.00 | 40 | 1018.3 |
| 20260503191737 | 10 | 15 | 6.4 | 8.0 | 0.00 | 0.00 | 0.00 | 42 | 1018.1 |
| 20260503191234 | 10 | 358 | 9.7 | 12.9 | 0.00 | 0.00 | 0.00 | 42 | 1018.3 |
| 20260503190731 | 10 | 313 | 9.7 | 12.9 | 0.00 | 0.00 | 0.00 | 43 | 1018.4 |
| 20260503190228 | 10 | 25 | 9.7 | 12.9 | 0.00 | 0.00 | 0.00 | 43 | 1018.4 |
| 20260503185725 | 10 | 308 | 11.3 | 14.5 | 0.00 | 0.00 | 0.00 | 41 | 1018.2 |
| 20260503185220 | 10 | 57 | 4.8 | 9.7 | 0.00 | 0.00 | 0.00 | 45 | 1018.4 |
| 20260503184715 | 9 | 41 | 12.9 | 17.7 | 0.00 | 0.00 | 0.00 | 43 | 1018.8 |
| 20260503184212 | 9 | 344 | 8.0 | 11.3 | 0.00 | 0.00 | 0.00 | 45 | 1018.6 |
| 20260503183708 | 9 | 42 | 6.4 | 8.0 | 0.00 | 0.00 | 0.00 | 46 | 1018.7 |
| 20260503183206 | 9 | 19 | 8.0 | 9.7 | 0.00 | 0.00 | 0.00 | 42 | 1018.5 |
| 20260503182704 | 10 | 275 | 8.0 | 9.7 | 0.00 | 0.00 | 0.00 | 44 | 1018.7 |
| 20260503182202 | 10 | 42 | 6.4 | 8.0 | 0.00 | 0.00 | 0.00 | 48 | 1018.5 |
| 20260503181658 | 9 | 32 | 8.0 | 11.3 | 0.00 | 0.00 | 0.00 | 48 | 1018.6 |
| 20260503181155 | 9 | 280 | 9.7 | 12.9 | 0.00 | 0.00 | 0.00 | 45 | 1018.6 |
| 20260503180652 | 8 | 291 | 9.7 | 11.3 | 0.00 | 0.00 | 0.00 | 47 | 1018.7 |
| 20260503180150 | 9 | 358 | 11.3 | 14.5 | 0.00 | 0.00 | 0.00 | 47 | 1018.8 |
| 20260503175647 | 9 | 275 | 9.7 | 12.9 | 0.00 | 0.00 | 0.00 | 47 | 1018.7 |
| 20260503175144 | 9 | 338 | 6.4 | 11.3 | 0.00 | 0.00 | 0.00 | 47 | 1018.6 |
| 20260503174640 | 9 | 243 | 12.9 | 16.1 | 0.00 | 0.00 | 0.00 | 45 | 1018.7 |
| 20260503174138 | 10 | 278 | 12.9 | 16.1 | 0.00 | 0.00 | 0.00 | 47 | 1018.6 |
| 20260503173632 | 9 | 261 | 9.7 | 12.9 | 0.00 | 0.00 | 0.00 | 47 | 1018.6 |
| 20260503173129 | 8 | 338 | 6.4 | 11.3 | 0.00 | 0.00 | 0.00 | 47 | 1018.8 |
| 20260503172627 | 8 | 290 | 11.3 | 17.7 | 0.00 | 0.00 | 0.00 | 50 | 1018.8 |
| 20260503172124 | 8 | 346 | 12.9 | 14.5 | 0.00 | 0.00 | 0.00 | 48 | 1019.0 |
| 20260503171620 | 8 | 284 | 14.5 | 17.7 | 0.00 | 0.00 | 0.00 | 47 | 1018.5 |
| 20260503171117 | 9 | 289 | 12.9 | 17.7 | 0.00 | 0.00 | 0.00 | 49 | 1018.6 |
| 20260503170615 | 8 | 283 | 11.3 | 16.1 | 0.00 | 0.00 | 0.00 | 46 | 1018.7 |
| 20260503170111 | 9 | 280 | 11.3 | 14.5 | 0.00 | 0.00 | 0.00 | 47 | 1018.7 |
| 20260503151006 | 7 | 35 | 4.8 | 8.0 | 0.00 | 0.00 | 0.00 | 50 | 1018.8 |
| 20260503150503 | 7 | 301 | 11.3 | 12.9 | 0.00 | 0.00 | 0.00 | 51 | 1018.5 |
| 20260503131356 | 6 | 344 | 4.8 | 4.8 | 0.00 | 0.00 | 0.00 | 67 | 1019.3 |
| 20260503130853 | 6 | 316 | 4.8 | 4.8 | 0.00 | 0.00 | 0.00 | 68 | 1019.4 |
| 20260503130350 | 6 | 40 | 1.6 | 3.2 | 0.00 | 0.00 | 0.00 | 69 | 1019.3 |